SL-14 R/B (21423 NORAD) Tracking and Keplerian Element Data

This shows tracking and keplerian element data for the satellite.

Feedback or suggestion? Click here.




ElementValue
Catalog21423
NameSL-14 R/B
Epoch Orbit44004
Epoch Day198.78562501
Epoch Year2018
RAAN311.7218
Inclination82.4955
Eccentricity0.0018523
Argument of Perigee38.7627
Mean Anonmoly321.4911
Mean Motion14.79737337
Decay Rate6.5E-07
L11 21423U 91042B 18198.78562501 .00000065 00000-0 56000-5 0 9996
L22 21423 82.4955 311.7218 0018523 38.7627 321.4911 14.79737337440046

Live tracking and technical data element details for SL-14 R/B (NORAD 21423). SL-14 R/B can be tracked NOW for your location showing map with azimuth and elevation plus other details from your city location.

Track the satellite on the map from your city or location and see movement details for azimuth, elevation, latitude, longitude, range, height, and movement on the map or in text.







IsCatalogInMostPopularTable: catalog: 21423, numindb: 24
Update: records affected: 1



GetName: 21423 SL-14 R/B

Hit Count: updated at: Fri, 20 Jul 2018 20:35:02 GMT